This demonstration page uses our WeatherBlox Daily Observations layout. Learn more.

Left ArrowRight Arrow

39.08367, -84.50855

Hourly Observations for April 10, 2021

Temp ( °F °C ) Dew Point ( °F °C ) Humidity (%) Winds ( mph kmh ) Pressure ( in mb ) Visibility ( mi km ) Precip ( " mm )
12:53 am 00:53 Clear 56 13.3 50 10 81 81 Calm 29.78 1008 10 16.0934 0 0
1:53 am 01:53 Clear 54 12.2 51 10.6 90 90 Calm 29.78 1009 10 16.0934 0 0
2:53 am 02:53 Clear 54 12.2 50 10 87 87 Calm 29.78 1009 10 16.0934 0 0
3:53 am 03:53 Clear 53 11.7 50 10 89 89 Calm 29.76 1008 10 16.0934 0 0
4:53 am 04:53 Clear 53 11.7 50 10 89 89 Calm 29.76 1008 10 16.0934 0 0
5:53 am 05:53 Clear 54 12.2 51 10.6 90 90 Calm 29.74 1007 10 16.0934 0 0
6:53 am 06:53 Clear 53 11.7 49 9.4 86 86 W 3 6 29.73 1007 10 16.0934 0 0
7:53 am 07:53 Sunny 54 12.2 50 10 87 87 WSW 3 6 29.73 1007 10 16.0934 0 0
8:53 am 08:53 Sunny 61 16.1 54 12.2 78 78 SW 5 7 29.73 1007 10 16.0934 0 0
9:53 am 09:53 Sunny 66 18.9 54 12.2 65 65 SSE 7 11 29.7 1006 10 16.0934 0 0
10:53 am 10:53 Partly Cloudy 68 20 54 12.2 61 61 S 10 17 29.68 1005 10 16.0934 0 0
11:53 am 11:53 Mostly Cloudy 70 21.1 55 12.8 59 59 SSW 12 19 29.67 1005 10 16.0934 0 0
12:53 pm 12:53 Cloudy with Light Rain 65 18.3 58 14.4 78 78 SW 9 15 29.67 1005 5 8.0467 0.001 0.001
1:53 pm 13:53 Cloudy with Light Rain 64 17.8 60 15.6 87 87 Calm 29.64 1004 6 9.65604 0.07 1.778
2:53 pm 14:53 Cloudy with Light Rain 63 17.2 59 15 87 87 SE 8 13 29.61 1003 4 6.43736 0.1 2.54
2:59 pm 14:59 Cloudy with Heavy Rain 63 17.2 60 15.6 90 90 Calm 29.6 1002 1.75 2.816345 0.04 1.016
3:06 pm 15:06 Cloudy with Rain 63 17.2 60 15.6 90 90 SSE 5 7 29.6 1002 3 4.82802 0.06 1.524
3:53 pm 15:53 Cloudy with Light Rain 63 17.2 59 15 87 87 SE 8 13 29.57 1001 3 4.82802 0.18 4.572
4:53 pm 16:53 Cloudy with Rain 62 16.7 59 15 90 90 SSE 7 11 29.53 1000 3 4.82802 0.09 2.286
5:53 pm 17:53 Cloudy with Rain 62 16.7 59 15 90 90 SSE 3 6 29.5 999 5 8.0467 0.1 2.54
6:53 pm 18:53 Cloudy 62 16.7 59 15 90 90 SSE 14 22 29.48 998 10 16.0934 0.04 1.016
7:45 pm 19:45 Partly Cloudy 62 16.7 59 15 90 90 S 9 15 29.46 998 10 16.0934 0.001 0.001
7:53 pm 19:53 Mostly Cloudy 62 16.7 59 15 90 90 S 8 13 29.47 998 10 16.0934 0.001 0.001
8:53 pm 20:53 Clear 60 15.6 57 13.9 90 90 SSW 7 11 29.48 998 10 16.0934 0 0
9:53 pm 21:53 Mostly Clear with Mist and Fog 58 14.4 56 13.3 93 93 Calm 29.48 998 6 9.65604 0 0
10:53 pm 22:53 Mostly Cloudy 60 15.6 53 11.7 78 78 SSW 15 24 29.49 999 10 16.0934 0 0
11:53 pm 23:53 Clear 58 14.4 51 10.6 78 78 SSW 10 17 29.5 999 10 16.0934 0 0

Powered by AerisWeather